Showing default

BEIDOU 2 G8, 44231

Orbit data source: Space-Track

BEIDOU 2 G8, 44231 is a payload satellite owned by CNSA (CN) in GEO that was launched on Fri, 17 May 2019 UTC via a CHANG ZHENG 3C launch vehicle from the Xichang Space Center, China (XSC). Payload-class satellites include a variety of spacecraft equipped with specific instruments for various scientific and technological missions. These include communications satellites like Starlink; space stations such as the ISS; scientific satellites like the Hubble; Earth observation satellites from companies like Planet Labs, Umbra, and HawkEye 360; GPS; miniature CubeSats for education and research; and military/defense satellites.

Not visible in the next 10 days
Identifier
44231, 2019-027A
Orbit
GEO
Country
Flag of CNCN / PRC
Related business
Manufacturer
CAST
Mission
Operational Defense Navigation
Bus & Motor
DFH-3B, FY-25
Mass
~3,060 kg wet, 1,700 kg dry
Launch date (UTC)
2019-05-17 (7 years ago)
Launch vehicle
CHANG ZHENG 3C
Launch site
Xichang Space Center, China (XSC)
Object type
Payload
Rocket body
Debris
Shape & HBR
Box + 2 Pan, 9.0 m
Radar Cross Section
13.998 m², Large (>1 m²)

Expand to show TLE details & history
Last TLE update: 21 hours ago

TLE from 21 hours ago
0 BEIDOU 2 G8
1 44231U 19027A   25346.30496598 -.00000238  00000-0  00000-0 0  9991
2 44231   1.6611  74.7001 0008673 255.6977   5.1435  1.00267912 24209
Epoch: 2025-12-12T07:19Z
TLE epoch observation values (Epoch: 2025-12-12T07:19:09.060Z)
Latitude
-1.64271°
Longitude
144.50713°
Altitude
35,751.108 km
Speed
3.077 km/s
True Right ascension
22h 22m 10s
True Declination
-1° 38' 28"
Sunlit
Object was in daylight at epoch
Visualization orbit readout
Latitude
Unknown
Longitude
Unknown
Altitude
Unknown
Speed
Unknown
Apparent Right ascension
Unknown
Apparent Declination
Unknown
Sunlit
N/A
Visualization observer readout
Local Sidereal Time
02:23:57
Azimuth
Unknown
Elevation
Unknown
Doppler factor
Unknown
Orbital elements
Apogee altitude
35,825.321 km
Perigee altitude
35,752.178 km
Semi-major axis
42,166.887 km
Eccentricity
0.00087
Inclination
1.6611°
RAAN
74.7001°
Arg. of periapsis
255.6977°
True anomaly
5.15242°
Mean anomaly
5.1435°
Eccentric anomaly
5.14796°
Mean motion
0.25066 °/min
Orbital period
1,436.21 mins
BSTAR
0
Loading maneuver chart data...
Computing Atmospheric mass density...
Loading historical data...
Loading historical data...
Loading historical data...
Loading historical data...
Loading historical data...
Loading historical data...
Loading historical data...
Other satellites on launch #27 in the year 2019 (2019-05-17 UTC)

Documentation

Showing up to 5 results
|